COMSATBW-1

Last updated on Mon Jul 07 2025 00:02:43 GMT+0000 (Coordinated Universal Time)

1 35943U 09054B 25187.57654383 .00000041 00000+0 00000+0 0 9999 2 35943 0.0455 194.5509 0001726 267.4554 93.3538 1.00271261 57836
UTC large
Height (km)
Speed (km/s)
/
Latitude / Longitude
Inclination (degrees)
Orbital Period (minutes)
Azimuth
Elevation
Range (km)
Doppler Factor

Next 0 passes for location: London (51.5072 / 0.1276)

Sorry there are no passes over London.